Find Starlink 31825

NORAD ID: 60056 Int'l Des: 2024-112 Owner: SPXS Country: US Constellation: starlink operational
LEOCIRCULAR

当前视图

正在加载3D地球...

About Starlink 31825

Starlink 31825 (NORAD 60056) is a starlink constellation satellite (v2 mini) launched Jun 8, 2024 by SPXS of US. It operates in LEO, CIRCULAR orbit with a mass of 730.00 kg.

即将过境

Passes for default location (London). Set your location on the main map for personalized predictions.

高度历史

Loading altitude history...

两行轨道根数

1 60056U 24112U 26235.81992873 .00002261 00000-0 78049-4 0 9995
2 60056 53.1602 21.0839 0001177 69.2381 290.8748 15.34389970124198
Epoch: Aug 23, 2026 • Age: 11 hours

当前状态

高度 463.2 km
远地点 / 近地点 N/A
速度 7.64 km/s
星下点 25.97°N, 33.83°W
发射日期 Jun 8, 2024
运行时间 2.2 years
类型 internet

技术详情

分类 Payload
质量 730.00 kg
干质量 700.00 kg
总质量 730.00 kg
长度 0.30 m
直径 4.10 m
跨度 29.00 m
形状 Box + pan
制造商 SPXS
平台类型 Starlink V2M
阶段状态 In Orbit
所有者/国家 SPXS/US

Most Searched